User: anonymous
Location: Indian Springs
(36.5700°N, 115.6700°W)
Time: 20:04:03
(UTC-07:00)
Language:

Cosmos 2278 Rocket - Orbit

View from above orbital plane
View from above orbital plane
View from above satellite
View from above satellite

Ground track
Ground track

The orbit data is extracted from the following two-line orbital elements,

1 23088U 94023B   14237.49894405 -.00000306  00000-0 -13456-3 0    27
2 23088 070.9989 276.8452 0005163 245.8548 215.0463 14.14579494 50352
Epoch (UTC): 25 August 2014 11:58:28
Eccentricity: 0.0005163
inclination: 70.9989°
perigee height: 840 km
apogee height: 847 km
right ascension of ascending node: 276.8452°
argument of perigee: 245.8548°
revolutions per day: 14.14579494
mean anomaly at epoch: 215.0463°
orbit number at epoch: 5035

The dashed part of the orbit path shows where the satellite is in the earth's shadow,  

DLR